Weather in Sandogora

Russia / Kostroma Oblast     58°11′45″N   40°57′56″E
temp.,
°C
wind,
m/s
gust,
m/s
humid.,
%
clouds,
%
prec.,
mm/h
press.,
hPa
HPBL,
m
10 may, mon
mon1000:00+3nnw31086100 0.0 1019297
03:00+2nnw398861 0.0 1022222
06:00+3nnw311827 0.0 1024391
09:00+9n48510 0.0 10261122
12:00+12n35380 0.0 10271543
15:00+14nne23360 0.0 10271618
18:00+13ne13505 0.0 1027435
21:00+7nne11645 0.0 102910
11 may, tue
tue1100:00+5ene11677 0.0 103010
03:00+4ne117171 0.0 103010
06:00+7e116746 0.0 103154
09:00+13e124723 0.0 1031520
12:00+17ene2340100 0.0 1030952
15:00+18e2342100 0.0 10291024
18:00+17ene126082 0.0 102969
21:00+11ese227641 0.0 103011
12 may, wed
wed1200:00+9ese22785 0.0 103111
03:00+8ene22764 0.0 103015
06:00+10e24724 0.0 1031103
09:00+17ene34500 0.0 1030497
12:00+21e34450 0.0 1028969
15:00+23e45461 0.0 10271527
18:00+21e376097 0.0 1026372
21:00+16e310806 0.0 1025228
13 may, thu
thu1300:00+15ese258642 0.0 1026109
03:00+14ese248990 0.0 102689
06:00+14e288392 0.0 1025236
09:00+19ese4962100 0.0 1024582
12:00+21se5104999 0.0 10231208
15:00+23se584116 0.0 10221453
18:00+20sse41055100 0.0 1021690
21:00+16s31289100 0.5 1022667
14 may, fri
fri1400:00+15se289698 2.1 1022304
03:00+14sse259764 2.3 1021144
06:00+14sse139530 0.0 1021155
09:00+18sse2381100 0.0 1021648
12:00+20s2467100 0.1 10201119
15:00+22s3566100 1.1 10191181
18:00+21sse24755 0.8 1017612
21:00+16se229388 0.9 101624